User: anonymous   Login
Location: Unspecified
(0.0000°N, 0.0000°E)
Time: 00:28:49
(UTC+00:00)
Language:

GOES 5 - Orbit

View from above orbital plane
View from above orbital plane
View from above satellite
View from above satellite

Ground track
Ground track

The orbit data is extracted from the following two-line orbital elements,

1 12472U 81049A   21023.51009583  .00000012  00000-0  00000-0 0  9990
2 12472  12.7857 331.4742 0002895 354.5975 220.1123  1.00210975103082
Epoch (UTC): 23 January 2021 12:14:32
Eccentricity: 0.0002895
inclination: 12.7857°
perigee height: 35791 km
apogee height: 35815 km
right ascension of ascending node: 331.4742°
argument of perigee: 354.5975°
revolutions per day: 1.00210975
mean anomaly at epoch: 220.1123°
orbit number at epoch: 10308

The dashed part of the orbit path shows where the satellite is in the earth's shadow,  

DLR